Trieste, Italy

6:56 PM CEST on May 26, 2018 (GMT +0200)
Trieste

Weather History for LIVT - July, 2013

Change the Weather History Date:

Wednesday, July 10, 2013

  Actual Average Record
Temperature  
Mean Temperature 80 °F -  
Max Temperature 88 °F 82 °F 93 °F (2006)
Min Temperature 71 °F 68 °F 55 °F (2007)
Cooling Degree Days 14    
Growing Degree Days 30 (Base 50)    
Moisture  
Dew Point 65 °F    
Average Humidity 64    
Maximum Humidity 83    
Minimum Humidity 52    
Precipitation  
Precipitation 0.04 in 0.11 in - ()
Sea Level Pressure  
Sea Level Pressure 29.90 in    
Wind  
Wind Speed 6 mph ()    
Max Wind Speed 14 mph    
Max Gust Speed 25 mph    
Visibility 8.6 miles    
Events Thunderstorm    
Averages and records for this station are not official NWS values.
T = Trace of Precipitation, MM = Missing Value Source: Averaged Metar Reports

Daily Weather History Graph

Daily Weather History Graph

Search for Another Location

Airport or City:

Astronomy

Jul. 10, 2013 Rise Set
Actual Time 5:25 AM CEST 8:54 PM CEST
Civil Twilight 4:48 AM CEST 9:31 PM CEST
Nautical Twilight 3:59 AM CEST 10:20 PM CEST
Astronomical Twilight 2:55 AM CEST 11:23 PM CEST
Moon 7:39 AM CEST (7/10) 9:44 PM CEST (7/10)
Length of Visible Light 16h 42m
Length of Day
15h 28m
Waxing Crescent, 4% of the Moon is Illuminated
Jul 10
Waxing Crescent
Jul 16
First Quarter
Jul 22
Full
Jul 29
Last Quarter
Aug 6
New

Hourly Weather History & Observations

Time (CEST) Temp. Heat Index Dew Point Humidity Pressure Visibility Wind Dir Wind Speed Gust Speed Precip Events Conditions
12:55 AM 75.2 °F - 62.6 °F 65% 29.98 in - East 6.9 mph - N/A   Clear
2:00 AM 75 °F - 63 °F 58% 30.00 in 12 mi East 6.9 mph - -   Scattered Clouds
2:55 AM 73.4 °F - 62.6 °F 69% 29.98 in - East 3.5 mph - N/A   Clear
3:55 AM 75.2 °F - 64.4 °F 69% 29.98 in - East 4.6 mph - N/A   Clear
4:55 AM 75.2 °F - 62.6 °F 65% 29.95 in 6.2 mi NE 6.9 mph - N/A   Partly Cloudy
5:55 AM 73.4 °F - 64.4 °F 73% 29.95 in 6.2 mi NE 10.4 mph - N/A   Partly Cloudy
6:55 AM 73.4 °F - 64.4 °F 73% 29.95 in 6.2 mi ENE 9.2 mph - N/A   Partly Cloudy
7:55 AM 78.8 °F - 64.4 °F 61% 29.95 in - NE 10.4 mph 23.0 mph N/A   Clear
8:00 AM 79 °F - 65 °F 53% 29.95 in 12 mi NE 10.4 mph - -   Scattered Clouds
8:55 AM 80.6 °F 82.3 °F 64.4 °F 58% 29.95 in - NE 10.4 mph - N/A   Clear
9:55 AM 84.2 °F 86.6 °F 66.2 °F 55% 29.95 in - NNE 8.1 mph 20.7 mph N/A   Clear
10:55 AM 84.2 °F 87.3 °F 68.0 °F 58% 29.92 in 6.2 mi West 3.5 mph - N/A   Scattered Clouds
11:55 AM 80.6 °F 83.2 °F 68.0 °F 65% 29.92 in 6.2 mi NNW 2.3 mph - N/A   Scattered Clouds
12:55 PM 78.8 °F - 68.0 °F 69% 29.92 in 6.2 mi NNW 2.3 mph - N/A   Scattered Clouds
1:55 PM 84.2 °F 87.3 °F 68.0 °F 58% 29.89 in 6.2 mi WNW 4.6 mph - N/A   Partly Cloudy
2:00 PM 84 °F - 69 °F 52% 29.91 in 12 mi WNW 4.6 mph - -   Scattered Clouds
2:55 PM 84.2 °F 89.6 °F 71.6 °F 66% 29.89 in 6.2 mi NW 2.3 mph - N/A   Partly Cloudy
4:55 PM 84.2 °F 87.3 °F 68.0 °F 58% 29.86 in 6.2 mi West 2.3 mph - N/A   Partly Cloudy
5:55 PM 82.4 °F 84.6 °F 66.2 °F 58% 29.86 in 6.2 mi NE 6.9 mph 23.0 mph N/A Thunderstorm Light Thunderstorm
6:55 PM 71.6 °F - 66.2 °F 83% 29.83 in 6.2 mi ENE 13.8 mph 25.3 mph N/A   Scattered Clouds
7:00 PM 72 °F - 67 °F 79% 29.84 in 12 mi ENE 13.8 mph - - Thunderstorm Light Thunderstorm
7:55 PM 75.2 °F - 66.2 °F 73% 29.83 in - East 9.2 mph 23.0 mph N/A   Clear
8:00 PM 75 °F - 66 °F 68% 29.84 in 12 mi East 9.2 mph - -   Partly Cloudy
8:55 PM 75.2 °F - 64.4 °F 69% 29.83 in - South 3.5 mph - N/A   Clear
9:00 PM 76 °F - 65 °F 60% 29.85 in 12 mi South 3.5 mph - -   Scattered Clouds
9:55 PM 75.2 °F - 62.6 °F 65% 29.86 in - NNW 3.5 mph - N/A   Clear
10:00 PM 76 °F - 64 °F 57% 29.87 in 12 mi NNW 3.5 mph - -   Scattered Clouds
10:55 PM 77.0 °F - 64.4 °F 65% 29.86 in - South 2.3 mph - N/A   Clear
11:00 PM 76 °F - 63 °F 55% 29.86 in 12 mi ENE 11.5 mph - -   Mostly Cloudy
11:55 PM 77.0 °F - 64.4 °F 65% 29.86 in - East 8.1 mph - N/A   Clear